Погода в Чегеме-Втором

Россия / Кабардино-Балкарская Республика     43°35′33″N   43°35′47″E
темп.,
°C
ветер,
м/с
пор.,
м/с
влажн.,
%
обл.,
%
осадки,
мм/ч
давл.,
гПа
погр.,
м
1 декабря, ср
ср100:00+9з22712 0.1 99514
03:00+6сз1392100 1.2 999186
06:00+6всв119632 2.3 99976
09:00+7ю128594 2.3 100197
12:00+6ссв3474100 1.1 1003464
15:00+5вюв2381100 1.4 1005473
18:00+2в2394100 0.4 1009279
21:00+1в3497100 1.3 1011281
2 декабря, чт
чт200:00+1ююв2487100 0.1 1011193
03:000юз1184100 0.1 101319
06:000зсз21662 0.0 101410
09:00+2ссз248170 0.0 1019438
12:00+2вюв228092 0.1 1020645
15:00+3вюв237169 0.2 1021759
18:00+1юв128132 0.0 1023107
21:000ююз11760 0.0 102311
3 декабря, пт
пт300:000ююз11621 0.0 102210
03:00+1ююз11490 0.0 102110
06:00+1юз11466 0.0 102110
09:00+3ююв1140100 0.0 102124
12:00+6всв113867 0.0 1019211
15:00+5всв1152100 0.0 101873
18:00+3юз11586 0.0 101910
21:00+4зюз22503 0.0 101914
4 декабря, сб
сб400:00+4зюз22467 0.0 102018
03:00+4зюз3243100 0.0 102018
06:00+5зюз3241100 0.0 102023
09:00+7юз22385 0.0 101926
12:00+12всв11275 0.0 1016433
15:00+10в114085 0.0 101622
18:00+7ююз2247100 0.0 101613
21:00+7юз2241100 0.0 101517
5 декабря, вс
вс500:00+6зюз224113 0.0 101514
03:00+6юз2238100 0.0 101316
06:00+6зюз2239100 0.0 101415
09:00+8з1138100 0.0 101410
12:00+9ссв1136100 0.0 1014163
15:00+8св1143100 0.0 1015197
18:00+6сз015499 0.0 101810
21:00+5ююз115753 0.0 101810